Weather History for Lubbock, TX

Change the Weather History Date:

Thursday, April 4, 2013

  Actual Average Record
Temperature  
Mean Temperature 50 °F 57 °F  
Max Temperature 73 °F 72 °F 92 °F (1928)
Min Temperature 27 °F 42 °F 18 °F (1920)
Degree Days  
Heating Degree Days 15 9  
Month to date heating degree days 64 36  
Since 1 July heating degree days 2950 3190  
Cooling Degree Days 0 1  
Month to date cooling degree days 2 4  
Year to date cooling degree days 4 11  
Moisture  
Dew Point 29 °F    
Average Humidity 55    
Maximum Humidity 92    
Minimum Humidity 17    
Precipitation  
Precipitation 0.00 in 0.04 in 0.93 in (2004)
Month to date precipitation T 0.16  
Year to date precipitation 2.23 2.66  
Snow  
Snow 0.00 in 0.10 in - ()
Month to date snowfall 0.0 0.1  
Since 1 July snowfall 3.7 8.1  
Snow Depth 0.00 in    
Sea Level Pressure  
Sea Level Pressure 30.15 in    
Wind  
Wind Speed 7 mph (NNW)    
Max Wind Speed 15 mph    
Max Gust Speed 20 mph    
Visibility 8 miles    
Events      
T = Trace of Precipitation, MM = Missing Value Source: NWS Daily Summary

Daily Weather History Graph

Daily Weather History Graph

Search for Another Location

Airport:

Trip Planner

Search our weather history database for the weather conditions in past years. The results will help you decide how hot, cold, wet, or windy it might be!

Date:

Astronomy

Apr. 04, 2013 Rise Set
Actual Time 7:30 AM CDT 8:10 PM CDT
Civil Twilight 7:05 AM CDT 8:35 PM CDT
Nautical Twilight 6:35 AM CDT 9:05 PM CDT
Astronomical Twilight 6:05 AM CDT 9:35 PM CDT
Moon 3:42 AM CDT (4/4) 2:45 PM CDT (4/4)
Length of Visible Light 13h 30m
Length of Day
12h 39m
Waning Crescent, 33% of the Moon is Illuminated
Apr 4
Waning Crescent
Apr 10
New
Apr 18
First Quarter
Apr 25
Full
May 2
Last Quarter

Hourly Weather History & Observations

Time (CDT) Temp. Windchill Dew Point Humidity Pressure Visibility Wind Dir Wind Speed Gust Speed Precip Events Conditions
12:53 AM 30.9 °F 25.2 °F 28.0 °F 89% 30.18 in 10.0 mi North 5.8 mph - N/A   Scattered Clouds
1:09 AM 32.0 °F 27.5 °F 28.4 °F 87% 30.17 in 9.0 mi North 4.6 mph - N/A   Mostly Cloudy
1:29 AM 32.0 °F 26.4 °F 28.4 °F 87% 30.17 in 9.0 mi North 5.8 mph - N/A   Mostly Cloudy
1:45 AM 33.8 °F 29.6 °F 28.4 °F 81% 30.17 in 9.0 mi North 4.6 mph - N/A   Mostly Cloudy
1:53 AM 33.1 °F 28.7 °F 28.9 °F 85% 30.18 in 9.0 mi NNW 4.6 mph - N/A   Overcast
2:53 AM 32.0 °F 27.5 °F 28.9 °F 88% 30.18 in 6.0 mi NNW 4.6 mph - N/A   Overcast
3:53 AM 32.0 °F 28.7 °F 28.0 °F 85% 30.16 in 7.0 mi WNW 3.5 mph - N/A   Overcast
4:34 AM 30.2 °F 25.4 °F 26.6 °F 86% 30.15 in 6.0 mi NNW 4.6 mph - N/A   Scattered Clouds
4:53 AM 28.9 °F 25.2 °F 26.1 °F 89% 30.15 in 6.0 mi NW 3.5 mph - N/A   Partly Cloudy
5:53 AM 28.0 °F 21.7 °F 26.1 °F 92% 30.16 in 5.0 mi NNW 5.8 mph - N/A   Clear
6:53 AM 28.9 °F 25.2 °F 26.1 °F 89% 30.18 in 5.0 mi WNW 3.5 mph - N/A   Partly Cloudy
7:53 AM 28.0 °F 22.8 °F 26.1 °F 92% 30.20 in 5.0 mi NW 4.6 mph - N/A   Mostly Cloudy
8:02 AM 28.4 °F 22.2 °F 26.6 °F 93% 30.19 in 6.0 mi NW 5.8 mph - N/A   Mostly Cloudy
8:53 AM 35.1 °F 28.6 °F 32.0 °F 89% 30.21 in 7.0 mi NNW 8.1 mph - N/A   Overcast
9:53 AM 39.0 °F 36.8 °F 33.1 °F 79% 30.22 in 8.0 mi Variable 3.5 mph - N/A   Mostly Cloudy
10:00 AM 39.2 °F 35.0 °F 33.8 °F 81% 30.21 in 8.0 mi NW 5.8 mph - N/A   Scattered Clouds
10:53 AM 45.0 °F 41.2 °F 34.0 °F 65% 30.21 in 9.0 mi WNW 6.9 mph - N/A   Clear
11:53 AM 51.1 °F - 34.0 °F 52% 30.20 in 10.0 mi WNW 6.9 mph - N/A   Clear
12:53 PM 57.0 °F - 35.1 °F 44% 30.17 in 10.0 mi Variable 5.8 mph - N/A   Clear
1:53 PM 63.0 °F - 32.0 °F 31% 30.12 in 10.0 mi Variable 4.6 mph - N/A   Clear
2:53 PM 69.1 °F - 28.9 °F 22% 30.08 in 10.0 mi North 13.8 mph 17.3 mph N/A   Clear
3:53 PM 71.1 °F - 26.1 °F 19% 30.05 in 10.0 mi Variable 4.6 mph - N/A   Clear
4:53 PM 73.0 °F - 26.1 °F 17% 30.05 in 10.0 mi North 9.2 mph - N/A   Partly Cloudy
5:53 PM 72.0 °F - 27.0 °F 19% 30.05 in 10.0 mi North 6.9 mph - N/A   Partly Cloudy
6:53 PM 71.1 °F - 26.1 °F 19% 30.06 in 10.0 mi North 10.4 mph - N/A   Partly Cloudy
7:53 PM 66.0 °F - 26.1 °F 22% 30.07 in 10.0 mi ENE 9.2 mph - N/A   Partly Cloudy
8:53 PM 59.0 °F - 26.1 °F 28% 30.07 in 10.0 mi East 9.2 mph - N/A   Partly Cloudy
9:53 PM 54.0 °F - 34.0 °F 47% 30.10 in 10.0 mi SE 11.5 mph - N/A   Partly Cloudy
10:53 PM 50.0 °F - 34.0 °F 54% 30.12 in 10.0 mi ESE 11.5 mph - N/A   Partly Cloudy
11:53 PM 48.0 °F - 37.0 °F 66% 30.13 in 10.0 mi SSE 10.4 mph - N/A   Partly Cloudy